GFSCGP_prec_cloud_003.txt.gz
Cloud_Cover
0 4 3 0 0 0 0 0 0 0 0 0 0 0 0 0 0 0 0 0 0 0 3 1 0 0 0 0 0 58 93 5 73 97 97 100 62 77 100 88 7 72 82 98
0 0 0 0 0 0 0 0 0 0 0 0 0 0 0 0 0 0 0 0 0 0 0 0 0 0 0 1 5 5 29 43 98 76 100 100 91 95 90 88 100 100 80 18
0 0 0 0 0 0 0 0 0 0 0 0 0 3 0 0 0 0 0 0 0 0 0 0 0 0 2 5 25 25 48 74 100 100 73 48 99 76 100 98 79 52 64 100
0 0 0 0 0 0 0 0 0 0 0 9 0 34 3 0 0 0 0 0 0 0 0 0 2 5 5 96 100 100 100 96 73 99 53 100 100 96 68 99 80 92 100 100
0 0 0 0 0 0 0 0 0 0 0 0 0 0 75 4 0 0 0 0 0 0 0 0 1 36 100 100 98 100 55 5 44 84 100 100 94 99 100 100 100 99 89 37
0 0 0 0 0 0 0 0 0 0 0 0 3 0 98 86 3 3 0 0 0 0 2 21 100 99 100 98 91 78 84 88 100 99 86 100 100 100 85 40 5 5 12 14
0 0 0 0 1 0 0 0 4 4 4 39 2 0 2 0 0 2 1 0 0 4 28 94 100 100 76 5 5 41 100 96 88 84 89 55 18 30 9 35 86 100 100 100
4 23 0 0 0 0 0 0 1 0 2 8 0 3 88 0 0 0 0 0 0 3 25 80 56 24 39 76 95 80 75 87 98 94 71 64 6 94 95 100 100 100 100 100
0 0 0 0 0 0 0 0 0 0 0 0 0 7 3 0 0 4 5 6 31 48 62 65 70 100 100 59 12 13 100 100 100 100 92 84 14 28 100 100 100 99 100 90
0 0 0 0 0 0 0 0 4 2 22 0 4 7 100 14 25 44 94 90 87 65 86 100 80 58 70 100 100 100 100 98 70 100 78 94 100 100 100 100 100 100 46 92
0 0 0 0 0 0 4 5 0 0 0 1 3 22 17 10 5 24 23 91 100 100 100 100 98 100 97 100 100 98 93 100 100 94 100 97 100 100 98 83 85 100 100 84
0 0 0 0 0 0 0 3 0 0 2 4 2 2 46 63 56 99 99 84 91 100 68 85 96 84 100 100 100 100 100 97 69 100 100 100 100 100 100 100 100 100 33 96
0 0 0 0 0 5 1 4 1 1 5 5 54 24 94 97 100 100 100 68 54 100 98 100 100 100 89 100 100 100 98 98 100 100 100 100 100 100 88 27 73 69 100 100
5 4 5 5 5 5 34 13 5 19 26 54 22 100 100 100 100 68 81 100 100 97 100 100 67 43 71 100 95 93 100 100 94 83 88 73 27 13 18 70 100 100 100 100
0 0 0 0 0 5 6 30 6 5 20 64 18 100 100 93 54 49 99 100 78 100 100 63 95 99 100 99 100 89 100 88 58 92 39 36 9 35 72 100 100 100 65 7
1 4 5 0 0 0 0 5 4 5 12 6 98 96 100 44 82 95 100 100 100 13 10 100 100 100 97 90 88 96 80 92 65 100 89 67 91 99 100 100 100 100 5 5
2 3 5 5 7 4 5 30 5 58 86 71 100 100 100 91 100 98 100 98 41 100 97 49 61 80 100 80 5 33 100 42 26 88 100 100 100 99 100 100 100 100 82 66
5 3 47 52 86 50 24 19 24 19 5 40 100 98 98 49 100 61 40 98 100 33 30 100 100 94 15 5 5 42 100 100 100 100 51 98 100 100 100 100 100 93 96 100
2 15 45 90 5 51 21 5 5 5 3 14 60 40 12 34 50 77 99 15 19 61 100 100 88 5 6 6 5 32 100 100 100 100 100 100 100 88 100 100 100 100 100 100
0 13 5 61 54 59 12 78 5 5 42 44 74 20 24 15 83 81 99 98 99 95 48 25 65 5 5 2 0 5 9 100 100 99 17 94 100 100 100 100 100 100 100 100
64 94 72 98 78 16 25 5 4 32 42 36 5 7 34 66 97 32 17 66 90 12 64 6 5 5 5 5 2 5 43 100 100 98 15 100 100 100 100 100 100 100 100 76
29 30 77 76 92 74 28 93 51 91 96 33 10 94 100 100 89 76 97 40 14 5 5 5 5 5 5 5 5 5 11 100 100 95 78 100 100 100 100 100 100 91 95 98
5 7 33 78 48 99 100 100 88 100 96 65 100 100 93 87 92 56 12 5 5 5 5 5 5 5 44 5 5 77 7 26 63 95 100 100 100 100 100 79 99 100 100 91
7 13 81 24 35 100 51 99 100 89 100 16 66 100 100 89 25 5 6 5 5 5 5 5 5 92 80 97 98 100 38 93 97 59 100 100 100 100 100 99 100 100 85 97
27 5 20 84 44 71 7 79 99 57 86 95 99 94 62 34 42 90 89 11 5 24 5 6 96 100 100 100 100 100 100 100 99 84 96 85 98 89 98 82 99 54 91 15
94 5 25 52 61 51 88 84 100 100 100 98 28 32 16 84 96 69 81 5 7 5 5 66 33 32 83 99 100 77 100 93 33 5 8 94 77 77 83 100 100 74 5 5

GFSCGP_prec_cloud_009.txt.gz
Cloud_Cover
2 4 0 0 1 5 100 100 50 4 0 0 3 0 0 2 5 5 5 5 4 5 0 0 1 5 5 45 9 5 0 0 5 36 5 76 81 65 57 46 79 86 50 16
2 2 39 47 37 41 76 71 74 5 59 6 5 33 24 5 53 2 0 0 0 0 0 0 0 0 1 2 4 5 14 26 4 4 5 16 72 92 92 99 92 87 54 70
27 32 15 9 19 25 6 2 2 8 2 0 0 0 0 0 0 2 2 0 0 0 0 0 0 1 0 4 4 57 50 87 46 57 22 100 45 5 30 74 97 97 64 90
3 1 0 0 0 0 0 0 0 0 0 0 0 5 2 0 0 0 4 0 0 0 0 0 0 0 0 0 4 5 94 100 86 96 97 98 39 30 96 90 13 31 54 68
0 0 0 0 0 0 0 0 0 0 0 0 0 27 100 70 73 0 43 0 5 0 0 0 0 0 0 0 0 5 19 13 99 100 39 93 100 87 24 69 91 43 7 7
0 0 0 0 0 0 0 0 0 0 0 0 0 12 81 22 68 5 5 12 90 12 0 0 0 0 0 2 5 5 30 37 5 29 63 75 97 89 93 95 97 95 99 100
0 0 0 0 0 0 0 0 0 4 1 4 7 81 95 55 47 76 5 5 2 0 0 0 2 5 3 1 3 70 100 100 20 4 1 4 11 49 86 95 100 100 98 78
2 4 0 0 0 0 0 0 0 0 3 4 1 14 10 5 14 93 96 17 4 5 33 5 5 5 94 100 41 20 99 100 100 96 97 70 87 90 100 100 100 81 75 87
3 1 0 0 0 0 0 0 0 0 0 0 0 4 67 79 84 97 98 84 36 86 5 5 2 55 5 58 85 92 60 45 25 95 85 80 86 98 58 100 95 5 18 53
0 0 0 0 0 0 0 0 0 0 0 0 1 5 5 69 43 90 84 90 49 89 59 71 5 5 5 5 5 5 5 5 5 5 13 52 100 100 57 52 29 17 5 5
0 0 0 0 0 0 0 0 0 0 0 2 4 2 5 7 21 76 20 30 13 37 72 5 5 5 5 5 6 5 5 5 5 6 6 10 19 8 5 5 0 0 0 0
0 0 0 0 0 0 0 0 0 0 0 0 2 1 0 8 92 20 78 93 5 29 93 5 2 5 28 69 7 5 5 5 6 40 8 42 66 19 20 5 3 5 0 0
0 0 0 0 0 0 0 0 0 1 0 0 8 1 29 10 44 85 71 6 89 79 4 5 25 27 19 7 20 5 13 72 41 81 70 13 5 39 96 100 99 99 100 79
0 0 0 0 0 0 0 0 0 1 5 3 0 1 4 42 5 10 38 29 5 5 5 6 5 6 6 5 6 74 65 100 51 5 5 5 2 19 99 11 52 100 100 51
0 0 0 0 0 0 0 0 0 0 0 3 2 52 61 16 30 91 84 9 5 5 5 5 5 5 5 51 27 25 47 5 5 0 0 0 49 27 31 98 85 100 100 98
0 0 0 0 0 0 0 0 0 0 0 0 5 5 5 5 5 5 5 5 5 5 5 5 5 5 5 5 70 11 5 5 5 5 0 0 4 42 36 96 100 100 100 12
0 0 0 4 3 0 0 0 0 0 0 2 5 6 5 5 4 6 34 13 42 44 6 5 5 5 5 5 5 5 5 5 5 5 3 0 5 5 26 46 100 100 100 86
5 5 53 5 4 3 1 2 0 0 0 0 5 5 5 5 35 95 77 84 22 5 5 5 5 5 5 5 5 5 6 32 5 5 0 2 4 0 3 88 100 100 100 100
6 47 40 45 5 5 5 5 0 0 1 0 1 2 3 5 33 35 37 40 5 5 5 5 5 5 84 93 82 5 6 5 1 0 4 5 0 4 6 56 100 86 48 44
95 5 5 79 5 5 5 5 5 5 1 5 5 5 5 5 79 92 26 5 5 5 5 5 5 5 5 5 5 5 5 5 5 5 5 1 4 5 68 86 34 100 100 12
17 6 16 41 5 5 0 2 0 2 2 0 5 15 5 5 6 5 5 5 5 10 5 5 5 5 5 5 5 4 3 5 5 5 5 0 0 5 43 98 100 100 52 5
5 35 57 40 22 25 1 4 5 27 5 5 5 5 5 48 98 58 54 56 98 16 23 7 5 5 5 5 4 4 5 5 14 3 4 5 5 25 100 100 100 64 5 5
25 19 24 90 8 5 0 5 5 8 5 6 5 87 89 10 61 100 93 82 77 66 7 5 5 5 5 5 2 5 5 66 2 5 2 5 5 6 83 71 17 5 5 5
100 100 98 55 6 3 5 5 5 5 5 5 5 16 27 87 99 98 60 54 82 27 5 5 5 5 5 5 5 56 33 46 2 0 5 5 5 5 5 5 5 5 5 5
100 100 95 5 7 4 72 5 5 5 15 99 94 93 97 100 92 60 95 99 50 10 13 5 5 5 5 5 5 6 27 5 5 5 5 5 5 5 5 5 5 5 5 5
100 100 100 51 67 100 74 16 84 79 100 70 38 33 45 77 26 80 100 69 69 73 14 5 5 5 5 5 5 5 13 52 16 29 34 5 5 5 14 98 95 5 5 5

GFSCGP_prec_cloud_012.txt.gz
Cloud_Cover
1 0 0 0 5 32 7 5 1 5 0 7 6 0 0 0 0 0 0 1 4 1 5 5 5 1 0 4 5 5 87 100 100 54 96 4 4 17 26 66 79 100 95 56
0 0 1 0 0 64 98 84 0 0 0 0 0 3 5 3 5 0 0 2 2 2 0 0 3 16 100 13 23 86 79 39 20 5 5 10 47 94 89 98 87 22 66 82
0 1 5 0 5 5 62 6 6 5 11 5 5 3 4 0 0 0 0 5 56 59 59 69 45 21 1 20 3 0 1 3 76 88 86 81 94 100 95 81 74 100 97 40
5 4 1 5 5 5 5 23 10 0 0 0 0 0 0 0 0 0 0 4 22 100 73 46 10 4 0 0 0 0 2 5 5 45 95 100 99 100 82 6 35 22 52 19
0 0 0 0 0 0 0 0 0 0 0 0 0 0 0 5 5 4 15 56 100 100 98 100 100 82 0 0 0 0 4 12 99 100 100 100 100 62 46 85 100 100 100 100
0 0 0 0 0 0 0 0 0 0 0 0 0 1 5 5 5 80 82 99 91 98 16 28 25 4 3 4 4 29 11 5 67 77 99 100 97 75 77 99 100 100 74 58
0 0 0 0 0 0 0 0 0 1 0 1 0 4 5 87 93 67 62 18 35 5 79 96 16 79 41 5 58 86 92 88 85 65 18 4 5 5 43 91 100 98 100 98
0 0 0 0 0 0 0 0 0 1 4 4 5 4 3 13 90 100 40 6 5 55 100 51 5 2 0 4 76 98 95 94 94 44 5 5 59 100 100 100 50 93 72 68
0 0 0 0 0 0 0 0 0 0 0 0 0 0 5 81 78 58 72 100 96 48 5 5 7 5 5 5 5 16 81 74 60 6 5 7 12 54 78 3 0 0 0 1
0 0 0 0 0 0 0 0 0 0 0 0 0 4 5 5 23 5 5 5 5 21 5 5 5 5 4 5 56 97 100 88 80 33 5 5 5 4 1 0 8 25 21 14
0 0 0 0 0 0 0 0 0 0 1 2 4 3 0 5 5 4 4 5 13 96 68 47 14 5 43 76 60 30 5 5 5 5 5 0 2 5 8 19 20 9 5 5
0 2 0 0 0 0 0 0 0 0 0 0 4 1 0 3 25 97 92 98 71 86 100 94 88 38 5 5 5 8 5 5 5 5 4 5 14 7 18 61 16 27 100 100
5 3 0 0 0 0 1 4 2 0 0 0 0 0 0 4 65 94 97 14 5 36 36 85 77 83 48 5 5 3 3 5 5 5 5 18 5 5 3 29 32 64 100 89
2 0 0 0 0 0 0 4 5 5 5 5 2 0 0 2 4 5 2 0 4 93 99 95 35 5 5 5 5 5 6 5 5 5 5 5 5 4 0 60 81 100 98 94
0 0 0 0 0 1 5 0 0 0 2 3 0 0 0 0 0 4 5 5 29 69 84 76 87 21 5 5 6 9 5 5 5 5 5 5 0 0 0 1 56 52 70 20
0 0 0 0 0 1 0 0 0 0 0 0 0 0 0 0 0 3 5 5 34 100 100 100 33 5 5 5 5 5 5 5 5 5 3 0 0 0 0 0 28 33 100 100
0 0 1 5 5 0 3 1 0 0 0 0 0 0 0 0 0 0 5 5 83 98 99 64 5 5 18 7 5 5 5 5 5 2 5 4 0 0 1 4 6 53 92 100
5 5 44 5 5 5 5 4 0 1 0 0 1 0 0 0 3 5 7 10 9 25 57 80 17 56 70 17 5 5 5 5 5 5 1 0 0 4 4 5 5 69 80 94
13 20 90 55 5 5 5 5 5 5 20 5 5 1 0 4 5 9 5 5 5 11 30 38 23 21 5 5 5 5 6 17 5 0 4 4 5 5 0 5 5 38 20 93
86 96 17 86 5 5 6 7 47 53 77 25 99 100 100 17 34 47 5 5 26 77 5 27 52 8 50 26 5 5 10 6 5 5 5 3 5 5 5 38 75 9 88 100
8 10 79 71 18 69 11 10 14 17 5 5 11 100 100 100 100 30 10 15 73 8 61 86 22 5 5 5 10 5 5 4 3 24 8 5 5 5 6 64 90 100 100 98
78 85 99 99 100 100 58 11 52 8 5 5 76 100 100 97 72 64 38 78 50 100 79 5 54 71 27 32 5 5 5 1 36 37 42 5 5 5 6 97 92 93 40 5
100 100 100 100 100 100 100 99 14 5 58 100 100 35 50 68 69 9 53 16 86 9 5 56 66 46 5 5 5 5 0 28 100 52 5 5 5 5 5 11 6 22 5 5
100 100 100 95 100 100 41 95 53 42 100 98 67 36 80 100 95 55 5 5 5 5 56 94 82 33 9 34 5 5 24 100 68 7 5 26 5 5 5 5 5 5 5 5
100 100 86 5 46 5 94 61 35 9 68 96 98 90 100 69 19 5 5 5 5 11 98 87 35 26 28 5 5 15 100 100 24 100 95 96 88 5 5 5 75 85 76 5
100 100 8 5 5 5 44 10 5 50 100 100 99 100 97 44 8 5 5 5 16 97 100 99 52 5 5 5 14 81 100 76 80 100 100 100 100 15 5 22 94 99 99 20

GFSCGP_prec_cloud_015.txt.gz
Cloud_Cover
100 100 100 100 22 3 5 5 5 0 4 5 5 5 5 5 4 2 0 0 0 0 35 41 5 4 26 17 12 100 100 100 100 70 100 77 76 59 29 5 92 100 98 99
76 5 2 2 5 5 5 0 0 0 1 2 3 0 0 0 1 3 5 5 5 5 62 100 71 68 26 100 96 61 20 36 99 100 50 16 41 26 96 100 48 22 64 5
0 1 2 44 12 4 2 0 3 1 0 0 2 26 31 18 5 2 0 0 4 5 5 49 84 89 17 18 5 3 9 2 6 0 5 17 56 30 24 23 14 24 5 2
0 0 0 0 0 1 5 4 3 5 16 5 4 5 4 0 0 1 4 4 5 73 76 97 9 5 83 62 29 19 23 0 0 5 5 44 99 97 43 6 4 0 1 5
2 2 0 5 21 63 13 5 2 0 0 0 0 0 0 0 0 1 5 5 71 69 59 5 39 96 77 5 5 0 0 5 5 5 44 91 100 100 97 72 31 76 100 100
1 1 0 0 0 0 0 0 0 0 0 0 0 0 0 0 2 34 59 89 87 96 80 5 5 95 8 100 100 2 0 1 5 5 5 5 5 3 23 68 35 23 100 5
0 0 0 0 0 0 0 0 0 0 0 0 0 0 0 0 4 5 20 42 96 64 5 6 91 100 92 23 4 4 12 42 5 5 5 5 5 5 5 11 21 25 5 5
0 0 0 0 0 0 0 0 0 0 0 0 0 0 0 0 5 5 5 5 5 5 90 100 88 8 5 3 5 5 5 13 5 5 5 5 5 5 3 0 6 10 5 4
0 0 0 0 0 0 0 0 0 0 0 0 0 0 0 0 3 5 5 5 12 90 17 4 0 5 5 5 5 5 5 5 5 5 5 5 5 4 6 46 19 4 2 10
2 0 0 0 0 0 0 0 0 0 0 0 0 0 0 0 2 5 5 15 3 0 0 4 5 16 27 39 9 5 5 23 8 4 4 5 6 5 5 5 0 1 6 68
0 0 0 0 0 0 0 0 0 0 1 1 4 0 0 0 0 1 5 3 4 5 29 23 59 82 96 95 94 94 71 82 5 50 53 22 5 2 5 3 1 8 94 89
0 0 0 0 0 0 0 3 0 0 0 0 4 1 0 0 0 5 68 5 5 95 100 20 100 73 58 99 79 100 83 48 35 6 5 0 5 5 0 0 0 70 93 98
0 0 3 5 5 5 2 0 0 0 1 0 1 0 0 0 0 1 4 11 5 5 6 57 100 100 100 74 100 87 99 79 5 14 18 4 0 0 5 3 0 0 0 0
3 5 5 5 5 5 0 5 1 0 0 0 0 0 0 0 0 0 0 1 5 5 5 7 82 74 66 98 100 89 5 5 8 5 5 5 5 5 2 0 0 0 4 68
16 11 2 0 1 0 1 0 0 0 4 4 5 5 0 0 0 0 0 0 4 5 5 84 32 55 100 100 72 14 5 5 5 5 5 5 5 5 0 0 0 3 74 100
3 4 5 5 0 0 0 0 3 5 5 5 5 5 5 5 2 0 0 2 5 9 86 100 100 100 99 40 5 5 5 5 5 5 5 5 5 3 0 0 5 5 5 5
13 12 5 5 5 5 5 5 5 5 5 5 5 9 5 5 5 5 5 5 5 82 100 100 39 5 5 10 5 5 5 5 5 16 11 5 5 5 0 5 3 5 5 14
42 33 20 5 5 54 19 27 5 5 5 5 27 6 5 5 5 5 7 6 27 93 81 32 6 5 36 7 5 5 28 94 12 33 5 5 4 2 7 24 5 5 5 18
17 8 60 8 10 9 99 85 5 5 52 5 5 5 29 25 5 57 5 22 69 84 94 76 26 5 5 5 27 78 100 59 71 94 12 0 0 5 95 5 5 25 21 93
14 13 6 78 5 6 100 79 9 5 98 81 27 16 99 100 75 90 55 82 9 20 100 96 36 5 5 19 86 100 85 97 88 3 0 4 5 100 5 5 5 100 90 99
30 30 5 85 16 96 100 100 93 99 100 100 100 100 100 100 100 98 100 83 34 80 97 80 7 6 42 99 90 67 90 64 4 0 0 5 88 62 5 5 62 72 89 75
96 56 68 98 100 100 100 100 87 100 100 68 100 100 100 100 82 95 96 97 100 100 74 56 81 100 100 70 55 96 10 5 0 0 5 86 97 91 5 5 5 43 96 100
100 100 100 100 100 100 98 16 97 89 10 58 89 100 100 100 100 100 100 100 100 72 58 70 79 100 55 31 54 6 4 0 2 5 53 100 99 70 10 5 5 5 5 5
100 100 100 100 100 100 12 94 100 63 100 38 100 100 100 100 100 100 100 84 17 29 57 95 100 98 56 24 5 5 4 5 9 86 100 100 97 100 79 23 5 6 81 100
100 100 100 87 95 5 90 100 100 100 77 100 100 100 100 100 100 100 98 91 91 80 68 100 99 58 16 6 5 5 5 5 99 100 100 97 99 100 95 64 48 100 100 100
100 100 13 5 5 8 96 100 98 76 100 84 77 94 97 100 100 100 100 100 99 86 93 99 77 74 32 5 5 5 6 93 100 100 97 96 94 98 100 63 71 98 100 100

GFSCGP_prec_cloud_021.txt.gz
Cloud_Cover
100 100 100 100 100 100 100 100 100 100 60 5 5 10 18 5 5 5 5 8 17 73 96 100 70 96 89 100 100 100 100 88 100 100 100 100 100 100 100 100 100 95 80 5
96 98 87 100 100 94 97 100 97 100 77 13 4 3 1 5 5 5 5 6 53 100 100 68 47 35 39 58 44 45 90 100 100 100 87 5 5 13 26 13 38 1 0 2
97 93 100 100 100 99 100 99 99 52 6 0 4 5 5 5 5 5 5 23 88 100 100 75 26 11 5 9 7 5 17 10 5 90 66 5 5 4 5 4 0 0 0 2
100 100 100 100 100 100 100 84 20 5 5 9 4 1 0 0 16 18 28 66 60 62 39 1 5 5 52 90 61 94 75 38 62 65 21 76 40 40 0 0 0 0 0 0
100 100 99 73 100 95 11 8 5 0 0 3 0 0 0 0 3 2 0 0 0 1 0 0 5 20 5 5 32 89 78 23 62 77 47 3 0 0 0 0 0 0 0 0
5 36 63 7 4 3 3 0 4 1 3 5 5 29 2 0 0 0 0 0 0 0 3 6 55 55 5 11 3 8 5 5 5 5 5 22 5 2 1 4 2 3 0 0
0 0 0 0 0 0 0 2 5 32 21 1 0 0 0 0 0 0 0 0 0 2 5 5 5 5 26 47 4 5 5 5 12 28 5 5 5 26 5 10 5 5 0 0
0 0 4 5 0 0 0 0 0 0 0 0 0 0 0 0 0 0 0 0 0 0 5 7 59 90 35 4 5 5 5 5 5 5 38 13 5 37 36 18 5 0 3 5
0 0 0 0 0 0 0 0 0 0 0 0 0 0 0 0 0 0 0 0 0 0 5 5 5 0 0 5 5 5 5 11 41 99 100 99 98 22 5 5 7 5 9 58
0 0 0 0 0 0 0 0 0 0 0 0 0 0 0 0 0 0 0 0 0 2 5 2 0 0 0 2 5 5 65 100 100 93 59 77 5 5 5 5 16 81 32 5
0 0 0 0 0 0 0 0 0 0 0 0 0 0 0 0 0 0 0 0 1 0 0 0 3 5 8 43 54 37 79 100 100 100 100 9 5 5 5 35 44 5 5 5
0 0 0 0 0 0 0 0 0 0 0 1 0 0 0 0 0 5 5 5 1 5 1 5 5 5 47 22 90 100 100 100 100 100 72 22 85 38 5 5 5 5 5 5
0 0 0 0 0 0 0 0 1 2 0 0 1 1 0 5 5 5 5 5 5 5 5 5 5 5 38 90 100 100 64 90 100 65 77 48 5 5 5 5 10 5 5 5
0 0 0 0 0 2 5 5 3 0 0 0 2 19 5 12 5 5 5 5 5 5 5 33 40 78 92 100 100 54 87 100 53 18 8 5 5 22 41 40 5 14 14 5
1 0 0 2 5 5 5 5 4 4 0 5 30 51 5 10 10 5 5 5 67 97 88 62 5 80 100 100 51 96 100 16 5 5 5 5 24 69 68 6 96 89 5 5
5 5 5 5 38 8 84 23 5 5 5 5 5 38 3 5 5 5 22 5 18 16 8 48 52 100 100 62 100 100 30 5 5 5 18 52 100 98 100 100 100 7 30 4
23 20 29 79 10 53 100 30 5 5 5 5 5 7 5 5 38 75 55 46 95 57 27 32 86 100 100 100 92 60 78 17 32 57 83 100 100 100 100 100 38 100 25 0
12 5 19 57 5 77 88 98 9 4 5 5 5 4 8 93 100 100 100 100 100 96 82 60 84 100 100 100 100 93 69 31 83 100 100 100 100 100 99 48 34 14 0 1
5 5 8 5 5 67 100 92 99 5 9 4 4 23 100 100 74 77 66 100 100 99 98 100 100 100 100 100 100 100 76 97 100 100 100 100 100 97 28 50 5 5 4 4
5 5 5 5 9 71 100 100 7 5 32 25 99 100 100 95 61 100 98 37 91 100 100 100 100 100 100 100 100 100 100 100 100 100 100 100 92 33 49 72 25 5 5 5
68 71 43 46 16 78 64 5 8 84 93 100 100 98 92 100 91 81 30 58 86 100 100 100 100 100 100 100 100 100 100 100 100 100 100 90 100 91 100 97 5 5 5 5
8 28 18 21 10 5 5 22 79 76 95 66 9 5 5 25 99 71 24 91 100 100 100 100 100 100 100 100 100 100 100 100 100 98 86 99 96 100 78 5 5 5 5 5
99 88 16 54 10 1 5 5 56 100 100 18 5 5 5 16 20 24 65 99 100 99 100 100 100 100 100 100 100 100 100 100 100 100 99 100 100 21 6 37 20 5 5 5
98 23 73 24 99 97 100 100 77 5 5 5 5 5 5 29 55 85 88 100 100 100 100 100 100 100 100 99 93 100 100 100 100 100 100 100 5 47 78 88 75 55 41 5
100 100 100 100 100 98 86 35 5 5 7 10 5 15 51 22 9 26 96 100 100 100 100 100 100 100 100 100 100 100 100 99 100 100 100 100 8 65 58 94 71 70 48 5
100 100 100 65 48 5 8 8 19 26 40 26 22 29 29 29 98 100 100 100 100 100 100 100 100 100 100 100 100 100 88 94 100 100 100 91 88 56 74 83 56 60 9 5

GFSCGP_prec_cloud_024.txt.gz
Cloud_Cover
100 100 100 100 100 100 100 100 100 100 100 100 100 100 100 100 100 100 100 92 72 40 35 74 45 17 68 100 100 100 100 100 100 99 100 100 100 100 100 100 100 100 100 100
100 100 100 100 100 100 100 100 100 100 100 100 100 86 84 64 44 30 46 81 99 100 80 14 55 60 100 100 100 67 62 36 7 22 95 99 100 66 77 66 15 17 18 27
100 100 100 100 100 100 100 100 100 100 100 100 98 53 21 2 3 6 68 86 74 55 34 27 34 85 100 100 96 87 45 16 5 82 100 23 0 0 0 2 0 0 1 2
100 100 100 99 100 94 100 100 100 100 73 97 10 98 0 0 4 7 5 5 5 5 5 5 10 24 74 100 100 43 5 4 10 5 2 0 3 4 5 6 41 5 5 5
100 100 100 100 100 100 100 100 69 32 41 8 0 0 3 1 5 3 5 5 11 0 0 0 5 5 6 49 17 5 4 0 0 5 5 5 7 96 82 35 8 63 47 5
99 83 94 100 100 100 100 85 78 17 5 2 4 0 3 6 25 42 0 0 8 0 0 3 5 5 5 5 5 5 0 0 4 5 5 26 77 68 94 100 84 8 8 4
100 97 87 87 96 95 81 10 12 2 0 0 2 19 9 0 0 0 0 0 0 0 0 5 5 5 5 5 5 2 3 5 5 5 25 47 100 100 69 11 29 52 3 0
5 5 15 56 35 11 5 3 0 2 5 13 0 0 0 0 0 0 0 0 0 3 5 2 3 5 5 5 4 5 5 5 9 95 99 99 100 85 94 93 4 2 5 9
0 0 0 0 1 4 7 16 8 1 0 0 0 0 0 0 0 0 1 5 5 5 5 5 5 5 5 1 2 0 5 5 10 9 71 98 98 97 100 100 8 5 22 49
0 0 4 2 3 2 0 0 0 0 0 0 0 0 0 0 4 5 5 5 5 5 0 2 5 5 0 3 2 5 5 9 91 100 100 100 75 98 86 85 36 33 30 5
0 0 0 0 0 0 0 0 0 0 0 0 0 4 5 5 5 5 5 5 5 5 5 5 5 5 5 5 5 44 97 100 98 100 100 26 70 84 73 58 40 5 5 5
0 0 0 0 0 0 0 0 0 0 2 5 5 5 5 4 4 5 5 5 5 5 5 5 5 5 24 58 81 97 52 60 100 100 81 56 75 86 5 5 5 5 5 5
0 0 0 0 0 0 0 0 1 3 5 5 26 0 0 5 5 5 5 5 5 5 5 5 5 56 54 51 100 99 98 100 98 97 71 74 42 5 5 5 5 9 6 52
0 0 0 5 3 4 5 6 39 16 5 5 0 3 0 8 10 5 28 5 5 5 7 5 5 5 18 96 84 84 92 100 97 93 100 86 21 11 58 24 18 14 81 93
0 4 6 5 24 50 65 85 44 5 4 1 2 5 0 69 29 83 37 5 5 9 5 5 5 5 18 86 65 47 100 100 100 100 94 90 99 91 53 53 21 88 97 39
5 30 6 10 54 67 100 78 2 5 4 5 5 5 0 3 5 6 5 5 78 66 5 5 8 26 49 92 62 100 100 100 100 100 100 100 98 78 73 93 73 84 86 71
31 5 5 5 81 100 100 24 5 5 2 0 3 5 5 5 5 5 5 98 99 5 9 50 79 76 68 99 100 100 100 100 100 100 100 76 56 91 93 100 100 99 98 65
5 5 5 9 33 98 100 11 1 0 0 0 3 5 5 1 4 5 6 79 17 5 8 98 96 98 100 100 100 100 100 100 100 93 79 69 75 100 100 100 98 87 100 99
5 5 15 44 5 65 73 70 10 4 5 2 0 0 3 5 5 5 56 6 5 5 95 100 97 100 100 100 100 100 100 100 100 100 100 100 100 100 96 100 82 100 100 100
5 5 5 6 67 19 75 5 5 5 5 96 66 6 6 7 29 45 5 5 5 37 60 40 90 100 100 100 100 100 100 100 100 99 100 100 100 92 98 100 100 100 100 100
26 44 40 7 35 43 15 23 52 63 88 41 82 100 100 100 80 14 5 5 13 81 99 86 87 84 100 100 100 100 100 100 100 100 100 100 100 100 100 90 100 94 90 96
12 6 48 6 64 43 5 19 79 55 72 93 62 75 15 6 5 5 7 48 94 89 57 94 93 98 87 100 100 100 100 100 100 100 100 100 100 100 98 100 100 99 91 92
11 7 5 24 24 5 5 10 32 38 96 100 77 5 5 5 5 31 95 99 50 35 83 89 100 100 100 100 100 100 100 100 100 100 100 100 100 100 100 100 100 98 100 100
52 5 5 5 22 5 12 98 98 83 9 5 5 5 6 33 80 99 62 16 37 81 86 100 99 100 100 100 100 100 100 100 100 100 100 100 100 100 100 100 100 100 100 100
33 5 5 38 98 100 100 58 5 5 5 5 5 18 70 93 68 45 6 5 14 91 100 100 100 100 100 100 100 100 100 100 100 100 100 100 100 100 100 100 100 100 100 93
100 100 100 97 57 65 95 100 72 18 30 60 71 66 64 13 15 25 21 45 94 100 100 100 100 100 100 100 100 100 100 100 100 100 100 100 100 100 99 100 100 99 77 31